TITAN 3C TRANSTAGE DEB, 43283

Orbit data source: Space-Track

TITAN 3C TRANSTAGE DEB, 43283 is space debris originally from a launch on Sun, 09 Feb 1969 UTC launched from the Air Force Eastern Test Range (AFETR). Debris objects in space refer to the collection of defunct objects orbiting the Earth. Examples of debris include non-operational satellites, rocket bodies, and fragments generated from explosions, collisions, or faulty payload assembly.

Not visible in the next 10 days
TITAN 3C TRANSTAGE DEB details
Identifier
43283, 1969-013D
Orbit
Active
Last TLE update2 weeks ago
Origin
Flag of USUSAF SMC (US)
ManufacturerMartin Marietta
MissionSpacecraft
Bus & MotorUnknown
MassUnknown
Launch date (UTC)
1969-02-09 (56 years ago)
Launch vehicleUnknown
Launch site
Air Force Eastern Test Range (AFETR)
Object type
Payload
Rocket body
Debris
Shape & HBRUnknown
Radar Cross SectionRCS unknown

Expand to show TLE details & history

TLE from 2 weeks ago
0 TITAN 3C TRANSTAGE DEB
1 43283U 69013D   24309.60129981 -.00000082  00000-0  00000+0 0  9993
2 43283   0.2817 235.2272 0333639 350.3378 131.6860  0.93080780 22586
Epoch: 2024-11-04T14:25Z
Definitive object data (Epoch: 2024-11-04T14:25:52.303Z)
Latitude0.25582°
Longitude99.20786°
Altitude38,944.743 km
Speed2.932 km/s
True Right ascension00h 00m 00s
True Declination0° 15' 20"
Sunlit
Object was in daylight at TLE epoch
Visualization TLE readout
Latitude-0.00379°
Longitude-22.35656°
Altitude36,477.714 km
Speed3.099 km/s
Apparent Right ascension16h 13m 23s
Apparent Declination-5° 04' 00"
Sunlit
Object is in daylight
Visualization observer readout
Local Sidereal Time07:27:19
Azimuth64.491° ENE
Elevation-34.267°
Doppler factor1
Orbital elements
Apogee altitude39,410.58 km
Perigee altitude36,453.848 km
Semi-major axis44,310.351 km
Eccentricity0.0333639
Inclination0.2817°
RAAN235.2272°
Arg. of periapsis350.3378°
True anomaly134.46297°
Mean anomaly131.686°
Eccentric anomaly133.08219°
Mean motion0.23269 °/min
BSTARUnknown
Orbital period1547.1 mins
Loading maneuver chart data...

TITAN 3C TRANSTAGE DEB Visibility forecast

Observer location: undefined°, undefined

TITAN 3C TRANSTAGE DEB is not visible in the next 10 days
Span
Click to sort rows by Start time (UTC) header in descending order
Start Az.
Max El. time (UTC)
Max El. Az.
Max El.
End time (UTC)
End Az.
|